GW3780 Weather Reports


Display with metric or nautical units.
time (UTC)temp
F
wind
direction
speed
MPH
gust
MPH
rain 1hr
in
rain 24hr
in
rain mn
in
humidity
%
barometer
mb
20260831225122 86 292 1.0 2.0 0.00 0.00 0.00 70 1019.4
20260831224617 86 301 1.0 2.0 0.00 0.00 0.00 70 1019.3
20260831224113 86 249 0.0 2.0 0.00 0.00 0.00 69 1019.3
20260831223608 87 318 0.0 2.0 0.00 0.00 0.00 68 1019.5
20260831223104 87 310 2.0 3.0 0.00 0.00 0.00 68 1019.4
20260831222600 87 323 2.0 2.0 0.00 0.00 0.00 67 1019.3
20260831222100 87 287 1.0 2.0 0.00 0.00 0.00 66 1019.4
20260831221556 87 304 2.0 2.0 0.00 0.00 0.00 67 1019.4
20260831221050 87 18 0.0 2.0 0.00 0.00 0.00 67 1019.5
20260831220550 87 304 0.0 2.0 0.00 0.00 0.00 68 1019.6
20260831220046 87 320 1.0 2.0 0.00 0.00 0.00 67 1019.3
20260831215541 87 310 1.0 2.0 0.00 0.00 0.00 66 1019.5
20260831215037 87 333 2.0 2.0 0.00 0.00 0.00 64 1019.5
20260831214535 88 295 1.0 2.0 0.00 0.00 0.00 62 1019.3
20260831214030 87 148 0.0 3.0 0.00 0.00 0.00 62 1019.5
20260831213526 87 313 1.0 2.0 0.00 0.00 0.00 64 1019.4
20260831213021 88 324 0.0 2.0 0.00 0.00 0.00 66 1019.4
20260831212518 89 318 2.0 2.0 0.00 0.00 0.00 64 1019.3
20260831212013 89 321 1.0 2.0 0.00 0.00 0.00 61 1019.1
20260831211507 89 269 0.0 2.0 0.00 0.00 0.00 59 1019.3
20260831211006 89 355 1.0 2.0 0.00 0.00 0.00 59 1019.1
20260831210502 89 315 0.0 2.0 0.00 0.00 0.00 58 1019.5
20260831205957 89 335 3.0 4.0 0.00 0.00 0.00 59 1019.3
20260831205453 89 322 2.0 3.0 0.00 0.00 0.00 61 1019.2
20260831204949 89 310 1.0 3.0 0.00 0.00 0.00 63 1019.2
20260831204448 89 299 2.0 2.0 0.00 0.00 0.00 62 1019.3
20260831203941 90 292 1.0 3.0 0.00 0.00 0.00 60 1019.4
20260831203436 90 307 1.0 2.0 0.00 0.00 0.00 58 1019.3
20260831202934 90 304 2.0 3.0 0.00 0.00 0.00 59 1019.4
20260831202430 89 303 1.0 2.0 0.00 0.00 0.00 58 1019.2
20260831201924 89 307 2.0 3.0 0.00 0.00 0.00 61 1019.3
20260831201422 89 339 0.0 2.0 0.00 0.00 0.00 59 1019.4
20260831200918 89 6 0.0 2.0 0.00 0.00 0.00 56 1019.6
20260831200413 89 324 3.0 3.0 0.00 0.00 0.00 57 1019.7
20260831195908 90 333 0.0 1.0 0.00 0.00 0.00 57 1019.5
20260831195403 90 310 0.0 3.0 0.00 0.00 0.00 57 1019.6
20260831194859 90 69 0.0 4.0 0.00 0.00 0.00 58 1019.5
20260831194354 90 151 1.0 2.0 0.00 0.00 0.00 57 1019.4
20260831193853 90 301 0.0 2.0 0.00 0.00 0.00 55 1019.5
20260831193349 90 314 2.0 3.0 0.00 0.00 0.00 57 1019.7
20260831192844 90 313 3.0 3.0 0.00 0.00 0.00 57 1019.7
20260831192343 91 283 3.0 3.0 0.00 0.00 0.00 56 1019.5
20260831191839 90 301 2.0 4.0 0.00 0.00 0.00 57 1019.7
20260831191335 89 309 0.0 4.0 0.00 0.00 0.00 58 1019.8
20260831190831 90 302 1.0 3.0 0.00 0.00 0.00 57 1019.7
20260831190325 90 237 0.0 2.0 0.00 0.00 0.00 58 1019.7
20260831185825 90 274 1.0 3.0 0.00 0.00 0.00 58 1019.8
20260831185320 89 302 1.0 3.0 0.00 0.00 0.00 61 1020.2
20260831184819 89 28 1.0 5.0 0.00 0.00 0.00 57 1020.0
20260831184315 90 296 2.0 2.0 0.00 0.00 0.00 58 1019.9
20260831183810 91 290 2.0 4.0 0.00 0.00 0.00 58 1019.9
20260831183309 91 299 2.0 2.0 0.00 0.00 0.00 58 1020.1
20260831182809 92 295 2.0 3.0 0.00 0.00 0.00 57 1020.0
20260831182305 92 293 2.0 2.0 0.00 0.00 0.00 56 1020.1
20260831181800 92 300 2.0 3.0 0.00 0.00 0.00 57 1020.2
20260831181254 92 308 2.0 2.0 0.00 0.00 0.00 58 1020.3
20260831180749 91 265 1.0 2.0 0.00 0.00 0.00 62 1020.0
20260831180244 91 318 2.0 4.0 0.00 0.00 0.00 60 1020.3
20260831175743 89 302 1.0 2.0 0.00 0.00 0.00 65 1020.2
20260831175239 88 290 2.0 3.0 0.00 0.00 0.00 66 1020.5
20260831174735 89 290 2.0 3.0 0.00 0.00 0.00 65 1020.5
20260831174231 88 343 0.0 4.0 0.00 0.00 0.00 69 1020.3
20260831173729 89 314 1.0 2.0 0.00 0.00 0.00 66 1020.5
20260831173223 89 309 0.0 1.0 0.00 0.00 0.00 65 1020.4
20260831172719 90 8 1.0 3.0 0.00 0.00 0.00 65 1020.5
20260831172214 89 311 2.0 3.0 0.00 0.00 0.00 63 1020.5
20260831171709 89 307 1.0 3.0 0.00 0.00 0.00 65 1020.7
20260831171207 89 322 0.0 2.0 0.00 0.00 0.00 66 1020.5
20260831170702 89 305 2.0 3.0 0.00 0.00 0.00 66 1020.6
20260831170159 88 325 2.0 2.0 0.00 0.00 0.00 65 1020.6
20260831165654 88 319 1.0 2.0 0.00 0.00 0.00 70 1020.7
20260831165151 87 48 0.0 2.0 0.00 0.00 0.00 68 1020.6
20260831164646 87 333 0.0 1.0 0.00 0.00 0.00 69 1020.5
20260831164143 87 336 0.0 2.0 0.00 0.00 0.00 68 1020.6
20260831163637 87 297 0.0 2.0 0.00 0.00 0.00 70 1020.8
20260831163133 87 277 2.0 3.0 0.00 0.00 0.00 69 1021.0
20260831162632 87 289 2.0 3.0 0.00 0.00 0.00 69 1021.0
20260831162130 87 289 1.0 2.0 0.00 0.00 0.00 70 1021.0
20260831161626 87 342 0.0 2.0 0.00 0.00 0.00 70 1021.2
20260831161122 86 283 0.0 2.0 0.00 0.00 0.00 70 1021.2
20260831160620 86 304 0.0 2.0 0.00 0.00 0.00 70 1021.1
20260831160116 86 304 2.0 2.0 0.00 0.00 0.00 70 1021.0
20260831155611 86 243 0.0 1.0 0.00 0.00 0.00 71 1021.2
20260831155107 85 302 2.0 2.0 0.00 0.00 0.00 71 1021.2
20260831154603 85 290 0.0 1.0 0.00 0.00 0.00 72 1021.1
20260831154102 86 123 0.0 2.0 0.00 0.00 0.00 72 1021.2
20260831153601 85 315 0.0 2.0 0.00 0.00 0.00 73 1021.0
20260831153059 85 325 3.0 3.0 0.00 0.00 0.00 74 1021.0
20260831152554 85 183 0.0 2.0 0.00 0.00 0.00 74 1021.1
20260831152049 84 309 0.0 2.0 0.00 0.00 0.00 76 1021.1
20260831151549 84 331 2.0 2.0 0.00 0.00 0.00 76 1021.3
20260831151048 84 326 2.0 2.0 0.00 0.00 0.00 77 1021.0
20260831150538 84 100 1.0 2.0 0.00 0.00 0.00 76 1021.0
20260831150034 83 308 2.0 2.0 0.00 0.00 0.00 77 1021.0
20260831145528 83 340 0.0 1.0 0.00 0.00 0.00 77 1021.1
20260831145025 83 266 0.0 3.0 0.00 0.00 0.00 78 1021.0
20260831144520 82 302 2.0 2.0 0.00 0.00 0.00 79 1021.2
20260831144015 82 313 2.0 2.0 0.00 0.00 0.00 80 1021.1
20260831143510 82 295 1.0 4.0 0.00 0.00 0.00 80 1021.0
20260831143005 82 309 3.0 4.0 0.00 0.00 0.00 79 1021.2
20260831142502 82 314 2.0 2.0 0.00 0.00 0.00 80 1021.3
20260831141956 82 297 0.0 0.0 0.00 0.00 0.00 81 1021.0
20260831141450 82 296 1.0 2.0 0.00 0.00 0.00 81 1021.2
20260831140945 81 312 0.0 2.0 0.00 0.00 0.00 81 1021.3
20260831140444 81 346 2.0 3.0 0.00 0.00 0.00 81 1021.2
20260831135943 81 291 0.0 2.0 0.00 0.00 0.00 84 1021.0
20260831135442 80 331 0.0 2.0 0.00 0.00 0.00 84 1021.2
20260831134938 80 333 0.0 2.0 0.00 0.00 0.00 84 1021.1
20260831134434 79 297 2.0 4.0 0.00 0.00 0.00 85 1021.0
20260831133929 80 135 0.0 1.0 0.00 0.00 0.00 82 1021.0
20260831133429 80 235 0.0 2.0 0.00 0.00 0.00 83 1021.1
20260831132924 79 308 0.0 2.0 0.00 0.00 0.00 84 1021.1
20260831132419 79 194 0.0 2.0 0.00 0.00 0.00 85 1021.3
20260831131919 80 347 0.0 2.0 0.00 0.00 0.00 84 1021.1
20260831131414 79 291 2.0 2.0 0.00 0.00 0.00 85 1021.0
20260831130910 79 336 0.0 2.0 0.00 0.00 0.00 85 1021.1
20260831130405 80 309 0.0 1.0 0.00 0.00 0.00 84 1021.1
20260831125904 80 293 0.0 2.0 0.00 0.00 0.00 82 1020.9
20260831125359 81 263 1.0 1.0 0.00 0.00 0.00 82 1021.0
20260831124854 80 326 0.0 1.0 0.00 0.00 0.00 83 1021.0
20260831124350 80 306 0.0 1.0 0.00 0.00 0.00 84 1020.9
20260831123845 78 285 0.0 2.0 0.00 0.00 0.00 88 1021.1
20260831123344 77 235 0.0 1.0 0.00 0.00 0.00 88 1021.2
20260831122838 77 191 1.0 2.0 0.00 0.00 0.00 87 1021.2
20260831122329 77 269 0.0 1.0 0.00 0.00 0.00 89 1021.2
20260831121828 77 329 0.0 2.0 0.00 0.00 0.00 89 1021.2
20260831121319 76 326 2.0 2.0 0.00 0.00 0.00 90 1020.9
20260831120814 75 310 0.0 2.0 0.00 0.00 0.00 91 1020.9
20260831120314 75 321 0.0 1.0 0.00 0.00 0.00 92 1020.8
20260831115809 75 252 0.0 2.0 0.00 0.00 0.00 91 1020.7
20260831115306 74 182 0.0 1.0 0.00 0.00 0.00 92 1020.8
20260831114804 74 297 0.0 1.0 0.00 0.00 0.00 92 1020.8
20260831114259 74 299 0.0 1.0 0.00 0.00 0.00 93 1020.9
20260831113754 74 328 0.0 2.0 0.00 0.00 0.00 93 1020.8
20260831113248 73 280 1.0 2.0 0.00 0.00 0.00 94 1020.7
20260831112748 73 252 0.0 2.0 0.00 0.00 0.00 94 1020.5
20260831112243 73 240 0.0 1.0 0.00 0.00 0.00 95 1020.4
20260831111739 73 339 0.0 2.0 0.00 0.00 0.00 95 1020.5
20260831111235 73 246 0.0 1.0 0.00 0.00 0.00 94 1020.3
20260831110731 73 293 0.0 0.0 0.00 0.00 0.00 95 1020.4
20260831110226 73 317 0.0 2.0 0.00 0.00 0.00 95 1020.6
20260831105724 73 335 0.0 1.0 0.00 0.00 0.00 95 1020.3
20260831105220 72 232 0.0 1.0 0.00 0.00 0.00 95 1020.3
20260831104714 73 315 0.0 1.0 0.00 0.00 0.00 95 1020.2
20260831104211 73 193 0.0 0.0 0.00 0.00 0.00 95 1020.3
20260831103711 73 327 0.0 0.0 0.00 0.00 0.00 94 1020.2
20260831103207 73 217 0.0 2.0 0.00 0.00 0.00 94 1020.2
20260831102706 73 339 0.0 2.0 0.00 0.00 0.00 94 1020.2
20260831102201 73 297 0.0 0.0 0.00 0.00 0.00 94 1020.4
20260831101656 73 305 1.0 1.0 0.00 0.00 0.00 94 1020.3
20260831101152 73 330 0.0 1.0 0.00 0.00 0.00 94 1020.5
20260831100648 73 25 0.0 2.0 0.00 0.00 0.00 93 1020.3
20260831100144 73 287 0.0 1.0 0.00 0.00 0.00 93 1019.9
20260831095642 73 321 0.0 1.0 0.00 0.00 0.00 93 1019.9
20260831095138 73 338 1.0 1.0 0.00 0.00 0.00 93 1020.1
20260831094632 74 301 1.0 2.0 0.00 0.00 0.00 92 1019.9
20260831094129 74 13 0.0 1.0 0.00 0.00 0.00 92 1020.0
20260831093624 74 307 0.0 1.0 0.00 0.00 0.00 92 1020.1
20260831093120 74 335 0.0 1.0 0.00 0.00 0.00 92 1020.0
20260831092616 74 309 0.0 0.0 0.00 0.00 0.00 92 1020.0
20260831092111 74 6 0.0 1.0 0.00 0.00 0.00 91 1020.2
20260831091611 74 322 0.0 1.0 0.00 0.00 0.00 91 1020.1
20260831091107 74 311 0.0 1.0 0.00 0.00 0.00 91 1020.1
20260831090602 74 237 0.0 1.0 0.00 0.00 0.00 91 1020.0
20260831090058 75 226 0.0 0.0 0.00 0.00 0.00 90 1020.2
20260831085552 75 345 0.0 0.0 0.00 0.00 0.00 90 1020.1
20260831085047 75 315 0.0 1.0 0.00 0.00 0.00 90 1020.0
20260831084538 75 218 0.0 0.0 0.00 0.00 0.00 89 1020.0
20260831084034 75 322 0.0 0.0 0.00 0.00 0.00 89 1020.0
20260831083530 75 223 0.0 0.0 0.00 0.00 0.00 89 1019.9
20260831083029 75 326 0.0 0.0 0.00 0.00 0.00 89 1019.9
20260831082523 75 339 1.0 1.0 0.00 0.00 0.00 89 1020.0
20260831082018 75 297 0.0 1.0 0.00 0.00 0.00 89 1020.0
20260831081514 75 320 0.0 1.0 0.00 0.00 0.00 89 1020.0
20260831081010 75 195 0.0 2.0 0.00 0.00 0.00 89 1019.9
20260831080504 75 0 0.0 1.0 0.00 0.00 0.00 88 1020.1
20260831080000 75 269 0.0 2.0 0.00 0.00 0.00 88 1019.9
20260831075455 75 210 0.0 1.0 0.00 0.00 0.00 88 1019.8
20260831074950 76 255 0.0 1.0 0.00 0.00 0.00 88 1019.9
20260831074444 76 283 0.0 0.0 0.00 0.00 0.00 88 1019.9
20260831073938 76 249 0.0 1.0 0.00 0.00 0.00 88 1020.1
20260831073433 76 304 0.0 1.0 0.00 0.00 0.00 88 1019.9
20260831072927 76 156 0.0 2.0 0.00 0.00 0.00 88 1019.8
20260831072423 76 205 0.0 0.0 0.00 0.00 0.00 88 1020.0
20260831071920 76 195 1.0 2.0 0.00 0.00 0.00 88 1020.0
20260831071419 76 284 0.0 2.0 0.00 0.00 0.00 87 1020.0
20260831070918 76 238 2.0 2.0 0.00 0.00 0.00 87 1020.0
20260831070417 76 274 0.0 1.0 0.00 0.00 0.00 87 1020.0
20260831065917 76 304 0.0 1.0 0.00 0.00 0.00 88 1020.1
20260831065414 76 269 0.0 1.0 0.00 0.00 0.00 87 1020.1
20260831064910 76 224 0.0 2.0 0.00 0.00 0.00 87 1020.1
20260831064405 76 284 0.0 1.0 0.00 0.00 0.00 87 1019.9
20260831063901 76 230 0.0 1.0 0.00 0.00 0.00 87 1020.1
20260831063355 76 277 0.0 1.0 0.00 0.00 0.00 87 1020.3
20260831062850 76 194 1.0 2.0 0.00 0.00 0.00 86 1020.0
20260831062345 76 251 1.0 2.0 0.00 0.00 0.00 86 1020.1
20260831061844 76 236 1.0 2.0 0.00 0.00 0.00 86 1020.3
20260831061343 76 269 0.0 2.0 0.00 0.00 0.00 86 1020.3
20260831060840 76 231 0.0 2.0 0.00 0.00 0.00 87 1020.3
20260831060339 77 224 0.0 2.0 0.00 0.00 0.00 86 1020.2
20260831055833 76 230 0.0 1.0 0.00 0.00 0.00 87 1020.6
20260831055328 76 243 0.0 1.0 0.00 0.00 0.00 87 1020.5
20260831054823 76 224 0.0 0.0 0.00 0.00 0.00 87 1020.7
20260831054318 76 303 1.0 1.0 0.00 0.00 0.00 87 1020.6
20260831053812 76 256 0.0 2.0 0.00 0.00 0.00 87 1020.5
20260831053311 76 224 0.0 0.0 0.00 0.00 0.00 87 1020.5
20260831052806 76 249 0.0 0.0 0.00 0.00 0.00 87 1020.6
20260831052306 77 309 0.0 1.0 0.00 0.00 0.00 87 1020.7
20260831051802 77 310 0.0 0.0 0.00 0.00 0.00 87 1020.7
20260831051256 77 310 0.0 1.0 0.00 0.00 0.00 86 1020.7
20260831050751 77 293 0.0 1.0 0.00 0.00 0.00 86 1020.6
20260831050250 77 322 0.0 1.0 0.00 0.00 0.00 86 1020.7
20260831045744 77 303 1.0 1.0 0.00 0.00 0.00 85 1020.7
20260831045239 78 293 0.0 2.0 0.00 0.00 0.00 85 1020.8
20260831044733 78 287 0.0 2.0 0.00 0.00 0.00 84 1020.8
20260831044223 78 333 0.0 1.0 0.00 0.00 0.00 84 1020.9
20260831043719 78 257 0.0 2.0 0.00 0.00 0.00 84 1020.7
20260831043214 78 197 0.0 1.0 0.00 0.00 0.00 84 1020.9
20260831042713 78 308 0.0 2.0 0.00 0.00 0.00 83 1021.0
20260831042208 78 322 0.0 1.0 0.00 0.00 0.00 83 1020.8
20260831041702 78 276 0.0 1.0 0.00 0.00 0.00 83 1020.9
20260831041156 78 326 0.0 2.0 0.00 0.00 0.00 83 1020.9
20260831040652 79 307 1.0 2.0 0.00 0.00 0.00 83 1021.0
20260831040150 78 269 0.0 1.0 0.00 0.00 0.00 83 1021.0
20260831035649 79 297 0.0 0.0 0.00 0.00 0.00 82 1021.0
20260831035144 79 229 0.0 2.0 0.00 0.00 0.00 82 1020.9
20260831034642 79 177 0.0 3.0 0.00 0.00 0.00 82 1020.9
20260831034138 79 336 0.0 1.0 0.00 0.00 0.00 82 1020.9
20260831033633 79 322 0.0 0.0 0.00 0.00 0.00 82 1020.8
20260831033128 79 333 0.0 1.0 0.00 0.00 0.00 81 1021.1
20260831032623 80 329 0.0 3.0 0.00 0.00 0.00 80 1021.0
20260831032119 80 297 0.0 1.0 0.00 0.00 0.00 80 1021.0
20260831031619 80 324 0.0 1.0 0.00 0.00 0.00 80 1021.1
20260831031118 80 294 0.0 1.0 0.00 0.00 0.00 80 1021.3
20260831030617 80 273 1.0 2.0 0.00 0.00 0.00 80 1021.2
20260831030116 80 230 0.0 0.0 0.00 0.00 0.00 80 1021.0
20260831025614 80 336 0.0 2.0 0.00 0.00 0.00 80 1021.2
20260831025109 80 309 0.0 2.0 0.00 0.00 0.00 79 1021.0
20260831024606 80 309 0.0 1.0 0.00 0.00 0.00 80 1021.2
20260831024104 80 214 0.0 2.0 0.00 0.00 0.00 79 1021.3
20260831023603 80 308 1.0 2.0 0.00 0.00 0.00 80 1021.3
20260831023102 79 294 0.0 2.0 0.00 0.00 0.00 80 1021.2
20260831022557 78 333 0.0 1.0 0.00 0.00 0.00 83 1021.1
20260831022052 78 329 1.0 1.0 0.00 0.00 0.00 83 1021.2
20260831021551 78 317 1.0 2.0 0.00 0.00 0.00 83 1021.3
20260831021047 78 329 0.0 1.0 0.00 0.00 0.00 83 1021.2
20260831020542 78 343 0.0 1.0 0.00 0.00 0.00 83 1021.2
20260831020037 78 333 0.0 1.0 0.00 0.00 0.00 83 1021.1
20260831015533 78 332 0.0 1.0 0.00 0.00 0.00 83 1021.0
20260831015027 79 343 0.0 1.0 0.00 0.00 0.00 82 1021.2
20260831014522 79 343 0.0 1.0 0.00 0.00 0.00 82 1021.1
20260831014018 78 339 0.0 1.0 0.00 0.00 0.00 82 1021.1
20260831013514 78 330 1.0 1.0 0.00 0.00 0.00 82 1021.2
20260831013014 79 343 0.0 0.0 0.00 0.00 0.00 82 1021.0
20260831012508 79 329 0.0 1.0 0.00 0.00 0.00 82 1021.3
20260831012003 79 304 0.0 0.0 0.00 0.00 0.00 82 1021.3
20260831011457 79 304 0.0 0.0 0.00 0.00 0.00 82 1021.1
20260831010953 79 322 0.0 1.0 0.00 0.00 0.00 82 1021.2
20260831010447 79 343 0.0 1.0 0.00 0.00 0.00 82 1021.2
20260831005943 79 326 0.0 1.0 0.00 0.00 0.00 81 1021.2
20260831005438 79 313 0.0 0.0 0.00 0.00 0.00 81 1021.1
20260831004938 79 315 0.0 1.0 0.00 0.00 0.00 81 1021.1
20260831004434 79 333 0.0 0.0 0.00 0.00 0.00 80 1020.9
20260831003930 79 343 0.0 1.0 0.00 0.00 0.00 79 1020.7
20260831003426 79 318 1.0 1.0 0.00 0.00 0.00 79 1020.4
20260831002925 80 326 0.0 1.0 0.00 0.00 0.00 79 1020.4
20260831002424 80 316 0.0 2.0 0.00 0.00 0.00 79 1020.4
20260831001920 80 322 0.0 1.0 0.00 0.00 0.00 79 1020.4
20260831001415 80 326 0.0 0.0 0.00 0.00 0.00 78 1020.3
20260831000912 81 303 1.0 1.0 0.00 0.00 0.00 78 1020.2
20260831000410 81 315 0.0 2.0 0.00 0.00 0.00 78 1020.2
20260830235906 81 302 0.0 1.0 0.00 0.00 0.00 76 1020.2
20260830235400 82 298 1.0 2.0 0.00 0.00 0.00 76 1020.2
20260830234856 82 310 1.0 2.0 0.00 0.00 0.00 76 1020.3
20260830234351 82 316 0.0 1.0 0.00 0.00 0.00 75 1020.3
20260830233847 82 312 1.0 1.0 0.00 0.00 0.00 75 1020.4
20260830233343 83 333 0.0 1.0 0.00 0.00 0.00 74 1020.4
20260830232838 83 319 0.0 0.0 0.00 0.00 0.00 73 1020.6
20260830232333 83 343 0.0 1.0 0.00 0.00 0.00 73 1020.3
20260830231830 84 0 0.0 1.0 0.00 0.00 0.00 72 1020.4
20260830231325 84 343 0.0 1.0 0.00 0.00 0.00 71 1020.8
20260830230824 84 326 0.0 1.0 0.00 0.00 0.00 71 1020.4
20260830230319 85 248 0.0 2.0 0.00 0.00 0.00 69 1020.3
20260830225814 85 314 0.0 2.0 0.00 0.00 0.00 70 1020.2